FW9298 Weather Reports


time (UTC)temp
C
wind
direction
speed
KPH
gust
KPH
rain 1hr
cm
rain 24hr
cm
rain mn
cm
humidity
%
barometer
mb
20260510150017 27 240 8.0 17.7 0.00 0.69 0.00 81 1016.5
20260510145018 26 212 3.2 11.3 0.00 0.69 0.00 89 1016.5
20260510144018 26 229 4.8 12.9 0.00 0.69 0.00 88 1016.5
20260510143018 26 246 4.8 11.3 0.00 0.69 0.00 87 1016.5
20260510142018 26 276 3.2 8.0 0.00 0.69 0.00 89 1016.4
20260510141038 26 227 4.8 12.9 0.00 0.69 0.00 91 1016.4
20260510140041 25 242 3.2 8.0 0.00 0.69 0.00 93 1016.3
20260510135015 25 2 1.6 6.4 0.00 0.69 0.00 93 1016.2
20260510134016 25 6 3.2 8.0 0.00 0.69 0.00 93 1016.1
20260510133016 25 209 4.8 11.3 0.00 0.69 0.00 93 1016.2
20260510132036 24 184 1.6 4.8 0.00 0.69 0.00 96 1016.1
20260510131036 23 200 3.2 6.4 0.00 0.69 0.00 97 1016.1
20260510130016 23 192 4.8 8.0 0.00 0.69 0.00 98 1015.9
20260510125037 22 205 4.8 8.0 0.00 0.69 0.00 99 1015.8
20260510124017 22 229 1.6 4.8 0.00 0.69 0.00 100 1015.9
20260510123017 22 193 1.6 3.2 0.00 0.69 0.00 100 1015.7
20260510122017 21 211 0.0 3.2 0.00 0.69 0.00 99 1015.6
20260510121037 20 107 1.6 3.2 0.00 0.69 0.00 99 1015.5
20260510120058 20 64 0.0 1.6 0.00 0.69 0.00 99 1015.4
20260510115023 20 161 0.0 0.0 0.00 0.69 0.00 99 1015.3
20260510114025 20 262 0.0 1.6 0.00 0.69 0.00 99 1015.0
20260510113024 20 164 0.0 1.6 0.00 0.69 0.00 99 1014.7
20260510112024 19 0.0 0.0 0.00 0.69 0.00 99 1014.7
20260510111024 19 0.0 0.0 0.00 0.69 0.00 99 1014.5
20260510110024 19 70 0.0 1.6 0.00 0.69 0.00 100 1014.3
20260510105024 19 15 0.0 1.6 0.00 0.69 0.00 100 1014.1
20260510104025 19 313 1.6 3.2 0.00 0.69 0.00 100 1014.0
20260510103036 19 47 0.0 1.6 0.00 0.69 0.00 100 1013.8
20260510102016 19 98 0.0 1.6 0.00 0.69 0.00 100 1013.8
20260510101042 19 280 0.0 1.6 0.00 0.69 0.00 100 1013.7
20260510100037 19 312 0.0 3.2 0.00 0.69 0.00 100 1013.6
20260510095018 19 196 0.0 1.6 0.00 0.69 0.00 99 1013.6
20260510094037 19 234 0.0 3.2 0.00 0.69 0.00 99 1013.6
20260510093017 19 281 1.6 3.2 0.00 0.69 0.00 99 1013.6
20260510092058 19 45 1.6 3.2 0.00 0.69 0.00 99 1013.4
20260510091018 19 80 0.0 3.2 0.00 0.69 0.00 99 1013.3
20260510090018 20 309 1.6 1.6 0.00 0.69 0.00 99 1013.2
20260510085019 20 290 0.0 1.6 0.00 0.69 0.00 99 1013.1
20260510084016 19 27 1.6 3.2 0.00 0.69 0.00 99 1013.0
20260510083017 19 326 0.0 1.6 0.00 0.69 0.00 99 1013.0
20260510082019 20 0.0 0.0 0.00 0.69 0.00 99 1012.9
20260510081016 20 195 0.0 1.6 0.00 0.69 0.00 99 1012.8
20260510080022 20 42 0.0 1.6 0.00 0.69 0.00 99 1012.8
20260510075016 20 61 0.0 0.0 0.00 0.69 0.00 98 1012.7
20260510074016 20 63 0.0 1.6 0.00 0.69 0.00 98 1012.7
20260510073016 20 349 0.0 1.6 0.00 0.69 0.00 98 1012.7
20260510072016 20 53 0.0 1.6 0.00 0.69 0.00 98 1012.7
20260510071017 20 90 1.6 1.6 0.00 0.69 0.00 98 1012.7
20260510070017 20 117 1.6 3.2 0.00 0.69 0.00 98 1012.8
20260510065017 20 142 0.0 3.2 0.00 0.69 0.00 98 1012.9
20260510064017 20 198 0.0 1.6 0.00 0.69 0.00 98 1013.0
20260510063037 20 136 0.0 3.2 0.00 0.69 0.00 98 1013.0
20260510062018 20 125 0.0 3.2 0.00 0.69 0.00 98 1013.1
20260510061018 20 132 1.6 3.2 0.00 0.69 0.00 97 1013.2
20260510060018 20 156 1.6 3.2 0.00 0.69 0.00 97 1013.3
20260510055018 20 162 3.2 6.4 0.00 0.69 0.00 97 1013.4
20260510054018 20 166 1.6 6.4 0.00 0.69 0.00 97 1013.5
20260510053015 20 177 3.2 6.4 0.00 0.69 0.00 97 1013.5
20260510052056 20 165 4.8 8.0 0.00 0.69 0.00 97 1013.6
20260510051016 20 180 4.8 9.7 0.00 0.69 0.00 97 1013.7
20260510050017 20 179 3.2 6.4 0.00 0.69 0.00 97 1013.8
20260510045036 20 170 3.2 8.0 0.00 0.69 0.00 98 1013.9
20260510044036 20 157 6.4 12.9 0.00 0.69 0.00 99 1013.9
20260510043017 20 151 8.0 12.9 0.00 0.69 0.00 99 1013.9
20260510042017 20 158 8.0 14.5 0.00 0.69 0.00 99 1014.1
20260510041057 20 152 4.8 6.4 0.00 0.69 0.00 99 1014.3
20260510040017 20 171 4.8 8.0 0.00 0.69 0.00 99 1014.5
20260510035017 20 159 3.2 8.0 0.00 0.69 0.69 99 1014.5
20260510034018 20 162 3.2 8.0 0.00 0.69 0.69 99 1014.6
20260510033038 20 157 4.8 8.0 0.00 0.69 0.69 99 1014.7
20260510032018 20 161 1.6 4.8 0.00 0.69 0.69 100 1014.7
20260510031018 20 189 1.6 4.8 0.00 0.69 0.69 100 1014.7
20260510030018 20 174 3.2 3.2 0.00 0.69 0.69 100 1014.6
20260510025015 20 207 1.6 3.2 0.00 0.69 0.69 100 1014.6
20260510024015 20 191 1.6 3.2 0.00 0.69 0.69 99 1014.4
20260510023016 20 190 1.6 3.2 0.00 0.69 0.69 99 1014.4
20260510022016 20 173 0.0 1.6 0.00 0.69 0.69 99 1014.2
20260510021036 20 281 0.0 1.6 0.00 0.69 0.69 99 1014.3
20260510020036 20 45 1.6 3.2 0.00 0.69 0.69 99 1014.3
20260510015016 20 160 0.0 1.6 0.00 0.69 0.69 99 1014.1
20260510014057 20 209 0.0 3.2 0.00 0.69 0.69 99 1014.0
20260510013037 20 73 1.6 3.2 0.00 0.69 0.69 99 1013.7
20260510012020 20 66 1.6 4.8 0.00 0.69 0.69 99 1013.7
20260510011017 20 66 3.2 4.8 0.00 0.69 0.69 99 1013.5
20260510010017 20 70 3.2 6.4 0.00 0.69 0.69 98 1013.4
20260510005017 20 127 3.2 4.8 0.00 0.69 0.69 98 1013.3
20260510004058 20 82 3.2 4.8 0.00 0.69 0.69 98 1013.1
20260510003018 20 102 3.2 4.8 0.00 0.69 0.69 98 1013.3
20260510002018 20 68 1.6 4.8 0.00 0.69 0.69 98 1013.1
20260510001018 20 69 1.6 4.8 0.00 0.69 0.69 98 1013.0
20260510000018 20 69 4.8 4.8 0.00 0.69 0.69 98 1013.0
20260509235018 20 62 3.2 6.4 0.00 0.69 0.69 98 1013.0
20260509234035 20 62 4.8 8.0 0.00 0.69 0.69 98 1013.0
20260509233015 20 70 4.8 8.0 0.00 0.69 0.69 98 1013.1
20260509232036 20 41 3.2 6.4 0.00 0.69 0.69 98 1013.3
20260509231016 20 47 4.8 9.7 0.00 0.69 0.69 97 1013.4
20260509230016 20 46 4.8 9.7 0.10 0.69 0.69 97 1013.2
20260509225016 20 54 6.4 11.3 0.18 0.69 0.69 97 1013.1
20260509224016 20 39 6.4 11.3 0.18 0.69 0.69 97 1013.2
20260509223018 20 39 8.0 14.5 0.20 0.69 0.69 97 1013.3
20260509222017 20 39 8.0 12.9 0.20 0.69 0.69 96 1013.5
20260509221017 20 51 8.0 12.9 0.58 0.69 0.69 95 1013.6
20260509220017 20 23 3.2 8.0 0.51 0.56 0.56 95 1014.0
20260509215017 21 354 1.6 4.8 0.46 0.48 0.48 94 1013.9
20260509214018 21 46 4.8 6.4 0.48 0.48 0.48 93 1013.8
20260509213018 21 346 1.6 4.8 0.48 0.48 0.48 92 1013.7
20260509212018 21 237 4.8 11.3 0.46 0.46 0.46 90 1013.7
20260509211018 22 32 9.7 14.5 0.10 0.10 0.10 88 1012.9
20260509210059 22 1 6.4 11.3 0.08 0.08 0.08 85 1013.2
20260509205018 23 1 8.0 17.7 0.05 0.05 0.05 82 1013.1
20260509204016 26 17 11.3 20.9 0.00 0.00 0.00 79 1012.5
20260509203056 26 329 1.6 4.8 0.00 0.00 0.00 79 1012.5
20260509202056 26 337 1.6 4.8 0.00 0.00 0.00 78 1012.6
20260509201016 26 337 3.2 9.7 0.00 0.00 0.00 78 1012.6
20260509200016 26 317 3.2 8.0 0.00 0.00 0.00 79 1012.6
20260509195016 26 255 1.6 4.8 0.00 0.00 0.00 79 1012.6
20260509194016 26 253 3.2 6.4 0.00 0.00 0.00 80 1012.8
20260509193017 26 261 1.6 6.4 0.00 0.00 0.00 80 1012.8
20260509192017 26 301 1.6 4.8 0.00 0.00 0.00 80 1013.0
20260509191017 26 254 3.2 8.0 0.00 0.00 0.00 79 1012.9
20260509190037 26 259 4.8 12.9 0.00 0.00 0.00 78 1012.9
20260509185017 26 205 4.8 14.5 0.00 0.00 0.00 78 1013.1
20260509184017 26 225 4.8 12.9 0.00 0.00 0.00 78 1013.3
20260509183019 26 224 6.4 12.9 0.00 0.00 0.00 77 1013.3
20260509182018 26 232 6.4 14.5 0.00 0.00 0.00 76 1013.2
20260509181018 27 239 6.4 14.5 0.00 0.00 0.00 74 1013.3
20260509180018 27 221 6.4 14.5 0.00 0.00 0.00 72 1013.4
20260509175016 27 223 8.0 14.5 0.00 0.00 0.00 71 1013.5
20260509174016 28 221 6.4 16.1 0.00 0.00 0.00 68 1013.7
20260509173016 28 256 6.4 14.5 0.00 0.00 0.00 66 1013.7
20260509172016 29 224 6.4 12.9 0.00 0.00 0.00 65 1013.7
20260509171022 29 237 6.4 14.5 0.00 0.00 0.00 64 1013.6
20260509170036 29 229 6.4 14.5 0.00 0.00 0.00 65 1013.6
20260509165017 -17 238 4.8 9.7 0.00 0.00 0.00
20260509164017 28 217 6.4 12.9 0.00 0.00 0.00 67 1013.6
20260509163016 28 211 6.4 12.9 0.00 0.00 0.00 69 1013.6
20260509162017 -17 210 9.7 17.7 0.00 0.00 0.00
20260509161037 28 207 11.3 20.9 0.00 0.00 0.00 72 1013.7
20260509160023 28 205 11.3 17.7 0.00 0.00 0.00 73 1013.5
20260509155037 27 210 12.9 20.9 0.00 0.00 0.00 73 1013.3
20260509154038 27 220 6.4 14.5 0.00 0.00 0.00 75 1013.4
20260509153018 -17 219 8.0 14.5 0.00 0.00 0.00
20260509152038 26 206 8.0 12.9 0.00 0.00 0.00 82 1013.3
20260509151018 26 189 8.0 12.9 0.00 0.00 0.00 83 1013.2